Location: *
(41.7492°S, 135.4150°W)
Time: 23:38:34
(UTC+00:00)

METEOR M2 - Pass Details

Date: 10 July 2022
Orbit: 818 x 827 km, 98.4° (Epoch: 17 August)

Event Time Altitude Azimuth Distance (km) Brightness Sun altitude
Exits shadow 03:10:47 23° 117° (ESE) 1,723 ? -15.3°
Maximum altitude 03:12:38 27° 86° (E) 1,538 ? -15.6°
Drops below altitude 10° 03:17:10 10° 28° (NNE) 2,427 ? -16.4°
Sets 03:19:51 0° 16° (NNE) 3,352 ? -16.9°
